EW3533 Weather Reports


Display with metric or nautical units.
time (UTC)temp
F
wind
direction
speed
MPH
gust
MPH
rain 1hr
in
rain 24hr
in
rain mn
in
humidity
%
barometer
mb
20260831000038 71 155 3.0 7.0 0.00 0.85 0.83 87 1014.1
20260830234526 72 156 4.0 7.0 0.00 0.85 0.83 86 1014.2
20260830233034 72 157 3.0 7.0 0.00 0.85 0.83 86 1014.2
20260830231530 73 157 3.0 6.0 0.00 0.85 0.83 85 1014.1
20260830230026 73 152 4.0 7.0 0.00 0.85 0.83 84 1014.0
20260830224524 74 157 2.0 9.0 0.00 0.85 0.83 83 1014.1
20260830223022 74 155 2.0 7.0 0.00 0.85 0.83 84 1014.3
20260830221519 74 186 1.0 4.0 0.00 0.85 0.83 85 1014.6
20260830220020 74 189 1.0 4.0 0.00 0.85 0.83 85 1014.5
20260830214518 74 151 1.0 5.0 0.00 0.85 0.83 84 1014.5
20260830213020 74 141 1.0 6.0 0.00 0.85 0.83 85 1014.6
20260830211520 74 165 2.0 5.0 0.00 0.85 0.83 85 1014.8
20260830210026 74 159 2.0 7.0 0.00 0.85 0.83 85 1014.8
20260830204516 73 163 1.0 4.0 0.00 0.85 0.83 86 1014.8
20260830203014 73 159 2.0 6.0 0.00 0.85 0.83 87 1014.5
20260830201509 73 155 1.0 5.0 0.00 0.85 0.83 89 1014.6
20260830200005 72 144 3.0 6.0 0.00 0.85 0.83 91 1014.4
20260830194604 71 154 3.0 8.0 0.00 0.85 0.83 91 1014.7
20260830193057 71 155 2.0 5.0 0.00 0.85 0.83 92 1014.9
20260830191553 70 155 1.0 6.0 0.00 0.85 0.83 93 1015.1
20260830190051 69 156 1.0 3.0 0.00 0.85 0.83 93 1015.2
20260830184549 69 156 2.0 6.0 0.00 0.85 0.83 93 1015.4
20260830183047 68 171 2.0 4.0 0.00 0.85 0.83 93 1015.6
20260830181547 68 188 0.0 3.0 0.00 0.85 0.83 94 1015.5
20260830180049 68 193 1.0 4.0 0.00 0.85 0.83 94 1015.4
20260830174545 68 160 1.0 6.0 0.00 0.85 0.83 94 1015.4
20260830173042 67 164 1.0 5.0 0.01 0.85 0.83 94 1015.4
20260830171540 67 154 1.0 3.0 0.03 0.85 0.83 94 1015.5
20260830170038 66 146 3.0 5.0 0.20 0.85 0.83 94 1015.7
20260830164555 65 151 2.0 5.0 0.23 0.85 0.83 94 1016.2
20260830163037 65 151 1.0 2.0 0.23 0.84 0.82 94 1016.1
20260830161535 65 151 2.0 5.0 0.22 0.81 0.79 94 1016.1
20260830160034 65 196 1.0 6.0 0.09 0.65 0.63 94 1016.0
20260830154533 65 175 1.0 3.0 0.10 0.62 0.60 94 1016.1
20260830153034 65 159 1.0 5.0 0.16 0.61 0.59 94 1016.4
20260830151531 65 183 1.0 4.0 0.19 0.59 0.56 94 1016.6
20260830150030 65 186 0.0 3.0 0.20 0.55 0.53 93 1017.0
20260830144529 65 165 1.0 5.0 0.24 0.52 0.50 93 1016.8
20260830143033 65 134 1.0 3.0 0.20 0.45 0.43 93 1017.1
20260830141537 65 223 1.0 4.0 0.17 0.40 0.38 93 1017.5
20260830140027 65 187 1.0 6.0 0.13 0.35 0.33 93 1017.3
20260830134536 65 219 2.0 7.0 0.09 0.28 0.26 93 1017.4
20260830133025 65 244 1.0 7.0 0.07 0.25 0.23 93 1017.2
20260830131524 65 233 0.0 9.0 0.05 0.23 0.21 93 1017.3
20260830130026 65 194 1.0 3.0 0.04 0.22 0.20 93 1017.3
20260830124523 64 208 0.0 3.0 0.04 0.19 0.17 93 1017.7
20260830123023 64 240 0.0 2.0 0.04 0.18 0.16 93 1017.3
20260830121527 64 200 0.0 3.0 0.05 0.18 0.16 93 1017.3
20260830120021 63 174 0.0 2.0 0.07 0.18 0.16 92 1017.4
20260830114520 63 174 0.0 1.0 0.05 0.15 0.13 92 1017.1
20260830113023 63 175 2.0 4.0 0.05 0.14 0.12 92 1016.5
20260830111519 63 176 0.0 1.0 0.05 0.13 0.11 92 1016.9
20260830110020 64 176 0.0 3.0 0.03 0.11 0.09 92 1016.8
20260830104517 64 176 2.0 3.0 0.02 0.10 0.08 92 1016.4
20260830103017 64 176 2.0 4.0 0.01 0.09 0.07 93 1016.5
20260830101514 64 195 1.0 3.0 0.00 0.08 0.06 93 1016.7
20260830100015 64 200 1.0 3.0 0.00 0.08 0.06 93 1016.5
20260830094524 64 200 1.0 3.0 0.00 0.08 0.06 93 1016.6
20260830093011 64 200 1.0 3.0 0.01 0.08 0.06 93 1016.8
20260830091509 64 200 0.0 2.0 0.01 0.08 0.06 93 1017.2
20260830090008 64 200 0.0 1.0 0.01 0.08 0.06 93 1017.2
20260830084507 64 200 0.0 2.0 0.01 0.08 0.06 93 1017.3
20260830083007 64 200 0.0 2.0 0.00 0.07 0.05 93 1017.2
20260830081515 64 200 0.0 1.0 0.00 0.07 0.05 93 1017.4
20260830080003 65 200 0.0 1.0 0.00 0.07 0.05 93 1017.2
20260830074501 65 201 1.0 4.0 0.01 0.07 0.05 93 1017.1
20260830071600 65 202 1.0 2.0 0.01 0.07 0.05 93 1017.6
20260830070053 65 202 0.0 2.0 0.01 0.07 0.05 93 1017.7
20260830064553 66 202 2.0 3.0 0.00 0.06 0.04 93 1017.5
20260830063051 66 202 1.0 2.0 0.00 0.06 0.04 92 1017.8
20260830061549 66 202 0.0 2.0 0.00 0.06 0.04 92 1017.9
20260830060055 66 202 0.0 2.0 0.00 0.06 0.04 92 1017.8
20260830054553 66 202 0.0 1.0 0.00 0.06 0.04 92 1017.9
20260830053050 66 202 0.0 1.0 0.01 0.06 0.04 91 1018.0
20260830051545 66 202 0.0 1.0 0.04 0.06 0.04 91 1018.2
20260830050043 66 202 0.0 2.0 0.04 0.06 0.04 90 1018.2
20260830044544 66 202 0.0 2.0 0.04 0.06 0.04 90 1018.2
20260830043040 67 202 0.0 0.0 0.03 0.05 0.03 90 1018.3
20260830041547 67 202 0.0 1.0 0.00 0.02 0.00 89 1018.4
20260830040041 67 202 0.0 0.0 0.01 0.02 0.00 89 1018.3
20260830034535 67 202 0.0 0.0 0.02 0.02 0.02 89 1018.2
20260830033035 67 202 0.0 0.0 0.02 0.02 0.02 88 1018.1
20260830031534 68 202 0.0 1.0 0.01 0.01 0.01 87 1018.0
20260830030056 68 202 0.0 0.0 0.01 0.01 0.01 87 1017.9
20260830024535 68 202 0.0 2.0 0.00 0.00 0.00 86 1017.9
20260830023033 69 202 0.0 0.0 0.00 0.00 0.00 83 1017.7
20260830021531 69 202 0.0 1.0 0.00 0.00 0.00 82 1017.7
20260830020035 70 202 0.0 0.0 0.00 0.00 0.00 80 1017.7
20260830014533 70 202 0.0 1.0 0.00 0.00 0.00 79 1017.7
20260830013031 71 202 0.0 1.0 0.00 0.00 0.00 76 1017.5
20260830011530 71 202 1.0 2.0 0.00 0.00 0.00 74 1017.3
20260830010029 72 204 2.0 6.0 0.00 0.00 0.00 71 1017.2
20260830004529 72 221 1.0 3.0 0.00 0.00 0.00 69 1017.2
20260830003032 73 220 0.0 5.0 0.00 0.00 0.00 68 1017.1
20260830001528 73 225 3.0 6.0 0.00 0.00 0.00 66 1017.2